sat.trackr.live / text

‹ back to catalog

STARLINK-32687

NORAD 63565 · 2025-075T

PAYLOAD ACTIVE UNKNOWN

§ Identity

Operator
Country
US
Launch date
2025-04-13
Launch site
AFETR
Launch vehicle
Mass (kg)
RCS (m²)

Purposes: comms

External: N2YO · Heavens-Above · Gunter

§ Orbital elements

Epoch: 2026-09-20T07:53:21.522912Z

Period
94.27 min
Inclination
42.9960°
Eccentricity
0.0001094
Mean motion
15.27585088 rev/d
Perigee alt
482.3 km
Apogee alt
483.8 km
Semi-major
6,861.2 km
B*
3.6069e-4
RAAN
251.4945°
Arg perigee
276.3065°
Mean anomaly
83.7662°
Rev number
8,170

§ Raw data

STARLINK-326871 63565U 25075T   26263.32872133  .00009678  00000+0  36069-3 0  99982 63565  42.9960 251.4945 0001094 276.3065  83.7662 15.27585088 81707

JSON: /api/v1/satellites/63565 · /tle

For live sub-satellite position, see the globe view (requires WebGL).

§ Visibility from observer

Set your observer location to see the next 7 days of passes ≥ 10°. The values pass through the URL so the page stays shareable.

No JS? Fill the form by hand. The geolocation button needs JavaScript.